| time (UTC) | temp F | wind direction | speed MPH | gust MPH | rain 1hr in | rain 24hr in | rain mn in | humidity % | barometer mb |
| 20260503032518 | 47 | 307 | 0.0 | 2.0 | 0.00 | 0.00 | 0.00 | 63 | 1013.5 |
| 20260503032018 | 48 | 338 | 0.0 | 2.0 | 0.00 | 0.00 | 0.00 | 59 | 1013.5 |
| 20260503031538 | 48 | 217 | 0.0 | 2.0 | 0.00 | 0.00 | 0.00 | 59 | 1013.5 |
| 20260503031018 | 48 | 0 | 0.0 | 1.0 | 0.00 | 0.00 | 0.00 | 58 | 1013.5 |
| 20260503030518 | 49 | 0 | 0.0 | 2.0 | 0.00 | 0.00 | 0.00 | 58 | 1013.5 |
| 20260503030034 | 49 | 0 | 0.0 | 2.0 | 0.00 | 0.00 | 0.00 | 58 | 1013.4 |
| 20260503025518 | 49 | 0 | 0.0 | 2.0 | 0.00 | 0.00 | 0.00 | 55 | 1013.5 |
| 20260503025021 | 49 | 0 | 0.0 | 2.0 | 0.00 | 0.00 | 0.00 | 58 | 1013.4 |
| 20260503024533 | 49 | 0 | 0.0 | 3.0 | 0.00 | 0.00 | 0.00 | 57 | 1013.3 |
| 20260503024018 | 49 | 302 | 0.0 | 3.0 | 0.00 | 0.00 | 0.00 | 58 | 1013.3 |
| 20260503023518 | 49 | 241 | 0.0 | 3.0 | 0.00 | 0.00 | 0.00 | 57 | 1013.3 |
| 20260503023049 | 49 | 47 | 0.0 | 2.0 | 0.00 | 0.00 | 0.00 | 56 | 1013.3 |
| 20260503022517 | 49 | 98 | 0.0 | 5.0 | 0.00 | 0.00 | 0.00 | 62 | 1013.3 |
| 20260503022021 | 50 | 0 | 1.0 | 5.0 | 0.00 | 0.00 | 0.00 | 56 | 1013.3 |
| 20260503021538 | 50 | 328 | 0.0 | 2.0 | 0.00 | 0.00 | 0.00 | 55 | 1013.4 |
| 20260503021018 | 50 | 0 | 0.0 | 2.0 | 0.00 | 0.00 | 0.00 | 58 | 1013.4 |
| 20260503020518 | 50 | 192 | 0.0 | 1.0 | 0.00 | 0.00 | 0.00 | 59 | 1013.4 |
| 20260503020038 | 50 | 0 | 0.0 | 1.0 | 0.00 | 0.00 | 0.00 | 57 | 1013.3 |
| 20260503015519 | 50 | 0 | 0.0 | 0.0 | 0.00 | 0.00 | 0.00 | 56 | 1013.3 |
| 20260503015019 | 50 | 0 | 0.0 | 2.0 | 0.00 | 0.00 | 0.00 | 56 | 1013.3 |
| 20260503014538 | 51 | 0 | 0.0 | 2.0 | 0.00 | 0.00 | 0.00 | 56 | 1013.3 |
| 20260503014018 | 51 | 192 | 0.0 | 2.0 | 0.00 | 0.00 | 0.00 | 52 | 1013.2 |
| 20260503013518 | 51 | 0 | 0.0 | 2.0 | 0.00 | 0.00 | 0.00 | 54 | 1013.2 |
| 20260503013033 | 51 | 0 | 0.0 | 0.0 | 0.00 | 0.00 | 0.00 | 53 | 1013.2 |
| 20260503012518 | 51 | 0 | 0.0 | 0.0 | 0.00 | 0.00 | 0.00 | 53 | 1013.2 |
| 20260503012017 | 52 | 0 | 0.0 | 0.0 | 0.00 | 0.00 | 0.00 | 53 | 1013.2 |
| 20260503011538 | 52 | 0 | 0.0 | 2.0 | 0.00 | 0.00 | 0.00 | 52 | 1013.1 |
| 20260503011021 | 52 | 0 | 0.0 | 2.0 | 0.00 | 0.00 | 0.00 | 53 | 1013.1 |
| 20260503010518 | 52 | 226 | 0.0 | 2.0 | 0.00 | 0.00 | 0.00 | 52 | 1013.0 |
| 20260503010050 | 52 | 0 | 0.0 | 2.0 | 0.00 | 0.00 | 0.00 | 49 | 1012.9 |
| 20260503005518 | 53 | 0 | 0.0 | 2.0 | 0.00 | 0.00 | 0.00 | 49 | 1012.8 |
| 20260503005019 | 53 | 0 | 0.0 | 2.0 | 0.00 | 0.00 | 0.00 | 48 | 1012.8 |
| 20260503004539 | 53 | 304 | 0.0 | 2.0 | 0.00 | 0.00 | 0.00 | 51 | 1012.8 |
| 20260503004018 | 53 | 0 | 0.0 | 2.0 | 0.00 | 0.00 | 0.00 | 48 | 1012.8 |
| 20260503003518 | 53 | 80 | 0.0 | 2.0 | 0.00 | 0.00 | 0.00 | 49 | 1012.6 |
| 20260503003034 | 53 | 0 | 0.0 | 2.0 | 0.00 | 0.00 | 0.00 | 50 | 1012.5 |
| 20260503002521 | 54 | 0 | 0.0 | 2.0 | 0.00 | 0.00 | 0.00 | 51 | 1012.5 |
| 20260503002018 | 54 | 0 | 0.0 | 3.0 | 0.00 | 0.00 | 0.00 | 48 | 1012.4 |
| 20260503001533 | 54 | 62 | 0.0 | 3.0 | 0.00 | 0.00 | 0.00 | 45 | 1012.3 |
| 20260503001019 | 54 | 0 | 0.0 | 2.0 | 0.00 | 0.00 | 0.00 | 49 | 1012.2 |
| 20260503000514 | 54 | 137 | 0.0 | 2.0 | 0.00 | 0.00 | 0.00 | 50 | 1012.2 |
| 20260503000036 | 54 | 0 | 0.0 | 2.0 | 0.00 | 0.00 | 0.00 | 50 | 1012.2 |
| 20260502235518 | 55 | 0 | 0.0 | 2.0 | 0.00 | 0.00 | 0.00 | 44 | 1012.1 |
| 20260502235020 | 55 | 98 | 0.0 | 2.0 | 0.00 | 0.00 | 0.00 | 45 | 1012.1 |
| 20260502234536 | 55 | 0 | 0.0 | 4.0 | 0.00 | 0.00 | 0.00 | 44 | 1012.1 |
| 20260502234018 | 55 | 348 | 1.0 | 4.0 | 0.00 | 0.00 | 0.00 | 47 | 1012.0 |
| 20260502233517 | 55 | 352 | 1.0 | 4.0 | 0.00 | 0.00 | 0.00 | 48 | 1011.9 |
| 20260502233034 | 55 | 213 | 0.0 | 55.0 | 0.00 | 0.00 | 0.00 | 44 | 1011.9 |
| 20260502232517 | 55 | 23 | 0.0 | 55.0 | 0.00 | 0.00 | 0.00 | 47 | 1012.1 |
| 20260502232017 | 55 | 352 | 1.0 | 9.0 | 0.00 | 0.00 | 0.00 | 46 | 1012.0 |
| 20260502231532 | 55 | 193 | 0.0 | 3.0 | 0.00 | 0.00 | 0.00 | 45 | 1011.9 |
| 20260502231017 | 55 | 270 | 1.0 | 3.0 | 0.00 | 0.00 | 0.00 | 46 | 1011.8 |
| 20260502230517 | 56 | 302 | 0.0 | 2.0 | 0.00 | 0.00 | 0.00 | 43 | 1011.7 |
| 20260502230038 | 56 | 0 | 0.0 | 2.0 | 0.00 | 0.00 | 0.00 | 46 | 1011.8 |
| 20260502225516 | 56 | 313 | 0.0 | 3.0 | 0.00 | 0.00 | 0.00 | 47 | 1011.9 |
| 20260502225022 | 56 | 257 | 0.0 | 3.0 | 0.00 | 0.00 | 0.00 | 46 | 1011.7 |
| 20260502224533 | 57 | 13 | 1.0 | 3.0 | 0.00 | 0.00 | 0.00 | 40 | 1011.7 |
| 20260502224015 | 57 | 135 | 1.0 | 3.0 | 0.00 | 0.00 | 0.00 | 41 | 1011.7 |
| 20260502223516 | 57 | 184 | 0.0 | 2.0 | 0.00 | 0.00 | 0.00 | 45 | 1011.7 |
| 20260502223033 | 57 | 333 | 1.0 | 3.0 | 0.00 | 0.00 | 0.00 | 44 | 1011.7 |
| 20260502222517 | 57 | 121 | 0.0 | 3.0 | 0.00 | 0.00 | 0.00 | 41 | 1011.6 |
| 20260502222015 | 57 | 97 | 0.0 | 3.0 | 0.00 | 0.00 | 0.00 | 43 | 1011.6 |
| 20260502221533 | 58 | 96 | 1.0 | 5.0 | 0.00 | 0.00 | 0.00 | 38 | 1011.7 |
| 20260502221015 | 58 | 336 | 1.0 | 5.0 | 0.00 | 0.00 | 0.00 | 40 | 1011.8 |
| 20260502220516 | 58 | 309 | 0.0 | 5.0 | 0.00 | 0.00 | 0.00 | 41 | 1011.6 |
| 20260502220031 | 58 | 9 | 1.0 | 5.0 | 0.00 | 0.00 | 0.00 | 42 | 1011.7 |
| 20260502215514 | 59 | 11 | 0.0 | 5.0 | 0.00 | 0.00 | 0.00 | 40 | 1011.7 |
| 20260502215015 | 59 | 338 | 0.0 | 5.0 | 0.00 | 0.00 | 0.00 | 40 | 1011.6 |
| 20260502214534 | 59 | 177 | 0.0 | 7.0 | 0.00 | 0.00 | 0.00 | 41 | 1011.7 |
| 20260502214015 | 59 | 10 | 2.0 | 7.0 | 0.00 | 0.00 | 0.00 | 41 | 1011.6 |
| 20260502213515 | 60 | 352 | 1.0 | 4.0 | 0.00 | 0.00 | 0.00 | 40 | 1011.6 |
| 20260502213035 | 60 | 9 | 1.0 | 4.0 | 0.00 | 0.00 | 0.00 | 41 | 1011.5 |
| 20260502212517 | 60 | 11 | 1.0 | 2.0 | 0.00 | 0.00 | 0.00 | 41 | 1011.5 |
| 20260502212015 | 59 | 313 | 1.0 | 2.0 | 0.00 | 0.00 | 0.00 | 41 | 1011.4 |
| 20260502211530 | 59 | 65 | 1.0 | 2.0 | 0.00 | 0.00 | 0.00 | 38 | 1011.4 |
| 20260502211016 | 59 | 98 | 0.0 | 2.0 | 0.00 | 0.00 | 0.00 | 38 | 1011.4 |
| 20260502210516 | 59 | 341 | 1.0 | 4.0 | 0.00 | 0.00 | 0.00 | 39 | 1011.3 |
| 20260502210033 | 59 | 287 | 1.0 | 5.0 | 0.00 | 0.00 | 0.00 | 37 | 1011.4 |
| 20260502205516 | 59 | 280 | 1.0 | 8.0 | 0.00 | 0.00 | 0.00 | 39 | 1011.4 |
| 20260502205015 | 60 | 293 | 2.0 | 8.0 | 0.00 | 0.00 | 0.00 | 36 | 1011.3 |
| 20260502204535 | 60 | 336 | 2.0 | 5.0 | 0.00 | 0.00 | 0.00 | 40 | 1011.3 |
| 20260502204015 | 60 | 342 | 1.0 | 5.0 | 0.00 | 0.00 | 0.00 | 36 | 1011.2 |
| 20260502203518 | 60 | 195 | 1.0 | 5.0 | 0.00 | 0.00 | 0.00 | 41 | 1011.2 |
| 20260502203031 | 60 | 324 | 2.0 | 4.0 | 0.00 | 0.00 | 0.00 | 40 | 1011.2 |
| 20260502202518 | 59 | 204 | 1.0 | 3.0 | 0.00 | 0.00 | 0.00 | 39 | 1011.2 |
| 20260502202017 | 59 | 0 | 0.0 | 2.0 | 0.00 | 0.00 | 0.00 | 37 | 1011.2 |
| 20260502201538 | 59 | 292 | 0.0 | 2.0 | 0.00 | 0.00 | 0.00 | 39 | 1011.3 |
| 20260502201019 | 60 | 53 | 1.0 | 4.0 | 0.00 | 0.00 | 0.00 | 38 | 1011.2 |
| 20260502200515 | 60 | 309 | 1.0 | 5.0 | 0.00 | 0.00 | 0.00 | 42 | 1011.3 |
| 20260502200039 | 60 | 63 | 1.0 | 5.0 | 0.00 | 0.00 | 0.00 | 39 | 1011.3 |
| 20260502195517 | 61 | 34 | 1.0 | 6.0 | 0.00 | 0.00 | 0.00 | 36 | 1011.3 |
| 20260502195015 | 62 | 191 | 2.0 | 8.0 | 0.00 | 0.00 | 0.00 | 35 | 1011.4 |
| 20260502194538 | 62 | 352 | 2.0 | 8.0 | 0.00 | 0.00 | 0.00 | 40 | 1011.4 |
| 20260502194015 | 62 | 338 | 2.0 | 6.0 | 0.00 | 0.00 | 0.00 | 39 | 1011.5 |
| 20260502193518 | 61 | 273 | 1.0 | 4.0 | 0.00 | 0.00 | 0.00 | 43 | 1011.6 |
| 20260502193034 | 60 | 173 | 1.0 | 3.0 | 0.00 | 0.00 | 0.00 | 41 | 1011.9 |
| 20260502192517 | 60 | 177 | 1.0 | 3.0 | 0.00 | 0.00 | 0.00 | 40 | 1012.0 |
| 20260502192020 | 60 | 15 | 1.0 | 7.0 | 0.00 | 0.00 | 0.00 | 41 | 1012.1 |
| 20260502191537 | 61 | 41 | 1.0 | 7.0 | 0.00 | 0.00 | 0.00 | 38 | 1012.2 |
| 20260502191020 | 61 | 15 | 1.0 | 4.0 | 0.00 | 0.00 | 0.00 | 37 | 1012.2 |
| 20260502190517 | 61 | 56 | 1.0 | 4.0 | 0.00 | 0.00 | 0.00 | 40 | 1012.3 |
| 20260502190032 | 61 | 57 | 2.0 | 4.0 | 0.00 | 0.00 | 0.00 | 41 | 1012.4 |
| 20260502185517 | 61 | 233 | 1.0 | 5.0 | 0.00 | 0.00 | 0.00 | 41 | 1012.5 |
| 20260502185017 | 61 | 44 | 1.0 | 5.0 | 0.00 | 0.00 | 0.00 | 42 | 1012.6 |
| 20260502184536 | 62 | 58 | 2.0 | 5.0 | 0.00 | 0.00 | 0.00 | 35 | 1012.6 |
| 20260502184017 | 62 | 25 | 1.0 | 4.0 | 0.00 | 0.00 | 0.00 | 39 | 1012.6 |
| 20260502183515 | 61 | 144 | 1.0 | 3.0 | 0.00 | 0.00 | 0.00 | 40 | 1012.7 |
| 20260502183035 | 61 | 251 | 1.0 | 4.0 | 0.00 | 0.00 | 0.00 | 36 | 1012.8 |
| 20260502182518 | 60 | 93 | 1.0 | 4.0 | 0.00 | 0.00 | 0.00 | 37 | 1012.8 |
| 20260502182018 | 60 | 22 | 2.0 | 4.0 | 0.00 | 0.00 | 0.00 | 40 | 1012.9 |
| 20260502181532 | 60 | 63 | 0.0 | 4.0 | 0.00 | 0.00 | 0.00 | 42 | 1013.1 |
| 20260502181017 | 60 | 316 | 1.0 | 4.0 | 0.00 | 0.00 | 0.00 | 36 | 1013.1 |
| 20260502180518 | 61 | 200 | 1.0 | 4.0 | 0.00 | 0.00 | 0.00 | 36 | 1013.2 |
| 20260502164017 | 58 | 352 | 1.0 | 3.0 | 0.00 | 0.00 | 0.00 | 47 | 1013.6 |
| 20260502163518 | 58 | 37 | 1.0 | 4.0 | 0.00 | 0.00 | 0.00 | 44 | 1013.6 |
| 20260502163042 | 58 | 109 | 1.0 | 4.0 | 0.00 | 0.00 | 0.00 | 46 | 1013.6 |
| 20260502162515 | 58 | 141 | 0.0 | 3.0 | 0.00 | 0.00 | 0.00 | 43 | 1013.7 |
| 20260502162017 | 57 | 40 | 1.0 | 4.0 | 0.00 | 0.00 | 0.00 | 44 | 1013.8 |
| 20260502161539 | 57 | 325 | 1.0 | 4.0 | 0.00 | 0.00 | 0.00 | 42 | 1013.7 |
| 20260502161017 | 57 | 108 | 1.0 | 3.0 | 0.00 | 0.00 | 0.00 | 47 | 1013.8 |
| 20260502160515 | 57 | 111 | 1.0 | 4.0 | 0.00 | 0.00 | 0.00 | 40 | 1013.8 |
| 20260502152017 | 56 | 63 | 1.0 | 4.0 | 0.00 | 0.00 | 0.00 | 52 | 1014.2 |
| 20260502151540 | 56 | 38 | 1.0 | 4.0 | 0.00 | 0.00 | 0.00 | 51 | 1014.2 |
| 20260502151017 | 55 | 169 | 1.0 | 4.0 | 0.00 | 0.00 | 0.00 | 48 | 1014.2 |
| 20260502150517 | 55 | 44 | 0.0 | 7.0 | 0.00 | 0.00 | 0.00 | 50 | 1014.2 |
| 20260502130517 | 50 | 329 | 1.0 | 2.0 | 0.00 | 0.00 | 0.00 | 67 | 1013.8 |
| 20260502123517 | 50 | 61 | 1.0 | 4.0 | 0.00 | 0.00 | 0.00 | 63 | 1013.9 |
| 20260502123048 | 51 | 100 | 0.0 | 3.0 | 0.00 | 0.00 | 0.00 | 66 | 1013.8 |
| 20260502122517 | 51 | 181 | 1.0 | 3.0 | 0.00 | 0.00 | 0.00 | 65 | 1013.8 |
| 20260502122017 | 50 | 17 | 1.0 | 9.0 | 0.00 | 0.00 | 0.00 | 69 | 1013.9 |
| 20260502121532 | 50 | 0 | 1.0 | 9.0 | 0.00 | 0.00 | 0.00 | 66 | 1013.9 |
| 20260502121015 | 49 | 9 | 2.0 | 9.0 | 0.00 | 0.00 | 0.00 | 69 | 1013.9 |
| 20260502120515 | 49 | 137 | 0.0 | 4.0 | 0.00 | 0.00 | 0.00 | 66 | 1013.9 |
| 20260502115518 | 49 | 29 | 1.0 | 3.0 | 0.00 | 0.00 | 0.00 | 66 | 1013.8 |
| 20260502115018 | 49 | 91 | 0.0 | 2.0 | 0.00 | 0.00 | 0.00 | 70 | 1013.9 |
| 20260502114533 | 49 | 320 | 0.0 | 5.0 | 0.00 | 0.00 | 0.00 | 70 | 1013.9 |
| 20260502114018 | 49 | 163 | 0.0 | 7.0 | 0.00 | 0.00 | 0.00 | 70 | 1013.9 |
| 20260502113521 | 49 | 61 | 2.0 | 7.0 | 0.00 | 0.00 | 0.00 | 66 | 1014.0 |
| 20260502113038 | 49 | 31 | 1.0 | 7.0 | 0.00 | 0.00 | 0.00 | 70 | 1014.0 |
| 20260502112520 | 49 | 67 | 1.0 | 7.0 | 0.00 | 0.00 | 0.00 | 71 | 1014.0 |
| 20260502112019 | 49 | 236 | 1.0 | 4.0 | 0.00 | 0.00 | 0.00 | 66 | 1013.8 |
| 20260502111544 | 49 | 19 | 1.0 | 6.0 | 0.00 | 0.00 | 0.00 | 70 | 1013.8 |
| 20260502111017 | 49 | 12 | 1.0 | 6.0 | 0.00 | 0.00 | 0.00 | 67 | 1013.7 |
| 20260502110515 | 49 | 271 | 1.0 | 4.0 | 0.00 | 0.00 | 0.00 | 71 | 1013.8 |
| 20260502110032 | 49 | 352 | 1.0 | 5.0 | 0.00 | 0.00 | 0.00 | 66 | 1013.8 |
| 20260502105515 | 49 | 34 | 1.0 | 5.0 | 0.00 | 0.00 | 0.00 | 68 | 1013.6 |
| 20260502105015 | 48 | 205 | 0.0 | 4.0 | 0.00 | 0.00 | 0.00 | 73 | 1013.6 |
| 20260502104537 | 48 | 31 | 1.0 | 4.0 | 0.00 | 0.00 | 0.00 | 71 | 1013.6 |
| 20260502104015 | 48 | 252 | 0.0 | 3.0 | 0.00 | 0.00 | 0.00 | 72 | 1013.5 |
| 20260502103518 | 48 | 164 | 0.0 | 3.0 | 0.00 | 0.00 | 0.00 | 72 | 1013.5 |
| 20260502103032 | 48 | 253 | 0.0 | 2.0 | 0.00 | 0.00 | 0.00 | 72 | 1013.4 |
| 20260502102518 | 48 | 261 | 0.0 | 7.0 | 0.00 | 0.00 | 0.00 | 71 | 1013.4 |
| 20260502102018 | 48 | 0 | 0.0 | 7.0 | 0.00 | 0.00 | 0.00 | 68 | 1013.4 |
| 20260502101534 | 49 | 20 | 1.0 | 7.0 | 0.00 | 0.00 | 0.00 | 66 | 1013.3 |
| 20260502101017 | 49 | 180 | 0.0 | 3.0 | 0.00 | 0.00 | 0.00 | 70 | 1013.3 |
| 20260502100518 | 49 | 0 | 0.0 | 3.0 | 0.00 | 0.00 | 0.00 | 71 | 1013.2 |
| 20260502091532 | 50 | 136 | 0.0 | 2.0 | 0.00 | 0.00 | 0.00 | 68 | 1012.5 |
| 20260502091020 | 51 | 352 | 0.0 | 3.0 | 0.00 | 0.00 | 0.00 | 69 | 1012.5 |
| 20260502090517 | 51 | 39 | 1.0 | 3.0 | 0.00 | 0.00 | 0.00 | 67 | 1012.5 |
| 20260502071534 | 51 | 0 | 0.0 | 2.0 | 0.00 | 0.00 | 0.00 | 79 | 1012.4 |
| 20260502071019 | 51 | 0 | 0.0 | 2.0 | 0.00 | 0.00 | 0.00 | 80 | 1012.3 |
| 20260502070516 | 51 | 177 | 0.0 | 2.0 | 0.00 | 0.00 | 0.00 | 81 | 1012.1 |
| 20260502070041 | 51 | 0 | 0.0 | 2.0 | 0.00 | 0.00 | 0.00 | 82 | 1011.9 |
| 20260502065519 | 51 | 0 | 0.0 | 2.0 | 0.00 | 0.00 | 0.00 | 82 | 1011.8 |
| 20260502065021 | 51 | 233 | 0.0 | 2.0 | 0.00 | 0.00 | 0.00 | 82 | 1011.9 |
| 20260502064534 | 51 | 0 | 0.0 | 2.0 | 0.00 | 0.00 | 0.00 | 81 | 1012.0 |
| 20260502064021 | 51 | 0 | 0.0 | 2.0 | 0.00 | 0.00 | 0.00 | 81 | 1011.8 |
| 20260502063518 | 51 | 0 | 0.0 | 2.0 | 0.00 | 0.00 | 0.00 | 81 | 1012.0 |
| 20260502063039 | 51 | 0 | 0.0 | 2.0 | 0.00 | 0.00 | 0.00 | 81 | 1012.2 |
| 20260502062518 | 51 | 0 | 0.0 | 0.0 | 0.00 | 0.00 | 0.00 | 81 | 1012.3 |
| 20260502062019 | 51 | 0 | 0.0 | 2.0 | 0.00 | 0.00 | 0.00 | 81 | 1012.4 |
| 20260502061534 | 51 | 0 | 0.0 | 2.0 | 0.00 | 0.00 | 0.00 | 81 | 1012.6 |
| 20260502061016 | 51 | 0 | 0.0 | 0.0 | 0.00 | 0.00 | 0.00 | 82 | 1012.6 |
| 20260502060515 | 52 | 0 | 0.0 | 0.0 | 0.00 | 0.00 | 0.00 | 81 | 1012.7 |
| 20260502060031 | 52 | 0 | 0.0 | 0.0 | 0.00 | 0.00 | 0.00 | 80 | 1012.7 |
| 20260502055515 | 52 | 0 | 0.0 | 0.0 | 0.00 | 0.00 | 0.00 | 81 | 1012.6 |
| 20260502055017 | 52 | 0 | 0.0 | 2.0 | 0.00 | 0.00 | 0.00 | 81 | 1012.5 |
| 20260502054532 | 52 | 0 | 0.0 | 2.0 | 0.00 | 0.00 | 0.00 | 81 | 1012.6 |
| 20260502054015 | 52 | 227 | 0.0 | 2.0 | 0.00 | 0.00 | 0.00 | 80 | 1012.7 |
| 20260502053518 | 52 | 0 | 0.0 | 2.0 | 0.00 | 0.00 | 0.00 | 80 | 1012.6 |
| 20260502053051 | 52 | 219 | 0.0 | 2.0 | 0.00 | 0.00 | 0.00 | 80 | 1012.7 |
| 20260502052516 | 52 | 0 | 0.0 | 2.0 | 0.00 | 0.00 | 0.00 | 79 | 1012.7 |
| 20260502052016 | 52 | 0 | 0.0 | 2.0 | 0.00 | 0.00 | 0.00 | 80 | 1012.7 |
| 20260502051536 | 52 | 0 | 0.0 | 2.0 | 0.00 | 0.00 | 0.00 | 80 | 1012.7 |
| 20260502051017 | 52 | 0 | 0.0 | 2.0 | 0.00 | 0.00 | 0.00 | 80 | 1012.7 |
| 20260502050517 | 52 | 0 | 0.0 | 2.0 | 0.00 | 0.00 | 0.00 | 80 | 1012.8 |
| 20260502050032 | 52 | 0 | 0.0 | 2.0 | 0.00 | 0.00 | 0.00 | 77 | 1012.8 |
| 20260502045518 | 52 | 0 | 0.0 | 2.0 | 0.00 | 0.00 | 0.00 | 79 | 1012.9 |
| 20260502045019 | 52 | 219 | 0.0 | 2.0 | 0.00 | 0.00 | 0.00 | 79 | 1013.1 |
| 20260502044531 | 53 | 0 | 0.0 | 2.0 | 0.00 | 0.00 | 0.00 | 79 | 1013.0 |
| 20260502044018 | 53 | 219 | 0.0 | 2.0 | 0.00 | 0.00 | 0.00 | 79 | 1013.0 |
| 20260502043520 | 53 | 0 | 0.0 | 2.0 | 0.00 | 0.00 | 0.00 | 78 | 1012.9 |
| 20260502043036 | 53 | 0 | 0.0 | 2.0 | 0.00 | 0.00 | 0.00 | 75 | 1012.8 |
| 20260502042515 | 53 | 0 | 0.0 | 2.0 | 0.00 | 0.00 | 0.00 | 78 | 1012.8 |
| 20260502042018 | 53 | 219 | 0.0 | 2.0 | 0.00 | 0.00 | 0.00 | 78 | 1012.8 |
| 20260502041539 | 53 | 165 | 0.0 | 2.0 | 0.00 | 0.00 | 0.00 | 78 | 1012.7 |
| 20260502041022 | 53 | 254 | 0.0 | 2.0 | 0.00 | 0.00 | 0.00 | 78 | 1012.6 |
| 20260502040518 | 54 | 0 | 0.0 | 2.0 | 0.00 | 0.00 | 0.00 | 77 | 1012.6 |
| 20260502040036 | 54 | 270 | 0.0 | 2.0 | 0.00 | 0.00 | 0.00 | 72 | 1012.4 |
| 20260502035518 | 54 | 243 | 0.0 | 2.0 | 0.00 | 0.00 | 0.00 | 70 | 1012.2 |
| 20260502035018 | 54 | 228 | 0.0 | 2.0 | 0.00 | 0.00 | 0.00 | 71 | 1012.2 |
| 20260502034533 | 54 | 0 | 0.0 | 2.0 | 0.00 | 0.00 | 0.00 | 71 | 1012.4 |
| 20260502034018 | 54 | 333 | 1.0 | 2.0 | 0.00 | 0.00 | 0.00 | 68 | 1012.4 |
| 20260502033518 | 55 | 5 | 1.0 | 2.0 | 0.00 | 0.00 | 0.00 | 68 | 1012.1 |
| 20260502033037 | 55 | 0 | 0.0 | 4.0 | 0.00 | 0.00 | 0.00 | 71 | 1011.9 |